• In Netherlands
  • List of Countries
  • For 7 days
  • Water Temperature
  • Satellite Maps
  • Weather Map
  • Weather Widgets
  • user-avatar
    Login

    Hourly Weather Sunny Beach

    Today, 19 February, Sunday

    Time Temperature Precipitation Wind Pressure Humidity
    00:00 +3°C° 0.1 mm 2 mps 741 mmHg 94%
    01:00 +3°C° 0.1 mm 2 mps 741 mmHg 94%
    02:00 +3°C° 0 mm 2 mps 741 mmHg 93%
    03:00 +3°C° 0 mm 2 mps 741 mmHg 94%
    04:00 +3°C° 0 mm 2 mps 741 mmHg 94%
    05:00 +3°C° 0 mm 2 mps 741 mmHg 94%
    06:00 +3°C° 0 mm 2 mps 741 mmHg 94%
    07:00 +4°C° 0 mm 2 mps 741 mmHg 94%
    08:00 +4°C° 0 mm 2 mps 741 mmHg 95%
    09:00 +5°C° 0 mm 2 mps 742 mmHg 92%
    10:00 +6°C° 0 mm 2 mps 742 mmHg 89%
    11:00 +7°C° 0 mm 3 mps 742 mmHg 86%
    12:00 +8°C° 0.2 mm 3 mps 741 mmHg 85%
    13:00 +9°C° 0.2 mm 3 mps 741 mmHg 83%
    14:00 +9°C° 0.2 mm 3 mps 741 mmHg 82%
    15:00 +9°C° 1.4 mm 3 mps 741 mmHg 85%
    16:00 +7°C° 1.4 mm 4 mps 740 mmHg 88%
    17:00 +7°C° 1.4 mm 4 mps 740 mmHg 91%
    18:00 +6°C° 2.3 mm 4 mps 739 mmHg 92%
    19:00 +6°C° 2.3 mm 4 mps 739 mmHg 93%
    20:00 +6°C° 2.3 mm 4 mps 739 mmHg 94%
    21:00 +6°C° 1.5 mm 4 mps 738 mmHg 94%
    22:00 +6°C° 1.5 mm 4 mps 738 mmHg 95%
    23:00 +6°C° 1.5 mm 4 mps 738 mmHg 95%

    Tomorrow, 20 February, Monday

    Time Temperature Precipitation Wind Pressure Humidity
    00:00 +6°C° 0.7 mm 4 mps 738 mmHg 95%
    01:00 +5°C° 0.7 mm 3 mps 738 mmHg 95%
    02:00 +5°C° 0.7 mm 3 mps 738 mmHg 95%
    03:00 +5°C° 0.7 mm 3 mps 737 mmHg 95%
    04:00 +4°C° 0.7 mm 3 mps 737 mmHg 94%
    05:00 +5°C° 0.7 mm 2 mps 737 mmHg 93%
    06:00 +4°C° 0.2 mm 2 mps 737 mmHg 93%
    07:00 +4°C° 0.2 mm 2 mps 737 mmHg 92%
    08:00 +4°C° 0.2 mm 2 mps 737 mmHg 91%
    09:00 +3°C° 0.1 mm 3 mps 737 mmHg 89%
    10:00 +4°C° 0.1 mm 3 mps 738 mmHg 86%
    11:00 +4°C° 0.1 mm 3 mps 738 mmHg 84%
    12:00 +4°C° 0.1 mm 3 mps 738 mmHg 81%
    13:00 +5°C° 0.1 mm 4 mps 738 mmHg 79%
    14:00 +5°C° 0.1 mm 4 mps 738 mmHg 77%
    15:00 +5°C° 0 mm 3 mps 738 mmHg 78%
    16:00 +5°C° 0 mm 3 mps 738 mmHg 79%
    17:00 +5°C° 0 mm 3 mps 738 mmHg 81%
    18:00 +3°C° 0 mm 3 mps 738 mmHg 83%
    19:00 +3°C° 0 mm 2 mps 738 mmHg 85%
    20:00 +2°C° 0 mm 2 mps 738 mmHg 87%
    21:00 +2°C° 0 mm 2 mps 738 mmHg 87%
    22:00 +2°C° 0 mm 2 mps 738 mmHg 88%
    23:00 +1°C° 0 mm 2 mps 738 mmHg 88%

    Day after tomorrow, 21 February, Tuesday

    Time Temperature Precipitation Wind Pressure Humidity
    00:00 +1°C° 0 mm 2 mps 738 mmHg 88%
    01:00 +1°C° 0 mm 2 mps 738 mmHg 88%
    02:00 +1°C° 0 mm 2 mps 738 mmHg 88%
    03:00 +1°C° 0 mm 2 mps 738 mmHg 88%
    04:00 +1°C° 0 mm 2 mps 738 mmHg 88%
    05:00 +1°C° 0 mm 2 mps 737 mmHg 89%
    06:00 +1°C° 0 mm 2 mps 737 mmHg 87%
    07:00 +1°C° 0 mm 2 mps 737 mmHg 86%
    08:00 +2°C° 0 mm 2 mps 737 mmHg 84%
    09:00 +3°C° 0 mm 2 mps 737 mmHg 78%
    10:00 +4°C° 0 mm 3 mps 737 mmHg 72%
    11:00 +7°C° 0 mm 3 mps 737 mmHg 66%
    12:00 +7°C° 0 mm 3 mps 737 mmHg 65%
    13:00 +7°C° 0 mm 4 mps 736 mmHg 64%
    14:00 +8°C° 0 mm 4 mps 736 mmHg 64%
    15:00 +8°C° 0 mm 3 mps 735 mmHg 68%
    16:00 +7°C° 0 mm 3 mps 735 mmHg 73%
    17:00 +7°C° 0 mm 3 mps 735 mmHg 77%
    18:00 +5°C° 0 mm 3 mps 735 mmHg 80%
    19:00 +4°C° 0 mm 3 mps 735 mmHg 82%
    20:00 +2°C° 0 mm 3 mps 735 mmHg 85%
    21:00 +2°C° 0 mm 3 mps 735 mmHg 85%
    22:00 +2°C° 0 mm 3 mps 735 mmHg 85%
    23:00 +2°C° 0 mm 3 mps 735 mmHg 85%

    22 February, Wednesday

    Time Temperature Precipitation Wind Pressure Humidity
    00:00 +2°C° 0.1 mm 3 mps 735 mmHg 86%
    01:00 +2°C° 0.1 mm 3 mps 735 mmHg 86%
    02:00 +3°C° 0.1 mm 3 mps 735 mmHg 87%
    03:00 +2°C° 0.2 mm 3 mps 735 mmHg 86%
    04:00 +2°C° 0.2 mm 3 mps 735 mmHg 85%
    05:00 +2°C° 0.2 mm 3 mps 735 mmHg 84%
    06:00 +2°C° 0 mm 3 mps 735 mmHg 83%
    07:00 +2°C° 0 mm 3 mps 735 mmHg 81%
    08:00 +2°C° 0 mm 3 mps 736 mmHg 80%
    09:00 +4°C° 0 mm 3 mps 736 mmHg 75%
    10:00 +6°C° 0 mm 4 mps 736 mmHg 70%
    11:00 +8°C° 0 mm 4 mps 737 mmHg 65%
    12:00 +10°C° 0 mm 4 mps 737 mmHg 63%
    13:00 +11°C° 0 mm 4 mps 737 mmHg 62%
    14:00 +11°C° 0 mm 4 mps 737 mmHg 60%
    15:00 +11°C° 0 mm 3 mps 737 mmHg 64%
    16:00 +10°C° 0 mm 2 mps 737 mmHg 69%
    17:00 +10°C° 0 mm 1 mps 737 mmHg 73%
    18:00 +8°C° 0 mm 2 mps 737 mmHg 75%
    19:00 +7°C° 0 mm 2 mps 737 mmHg 76%
    20:00 +5°C° 0 mm 3 mps 737 mmHg 78%
    21:00 +5°C° 0 mm 3 mps 737 mmHg 78%
    22:00 +5°C° 0 mm 3 mps 737 mmHg 78%
    23:00 +4°C° 0 mm 3 mps 737 mmHg 77%

    23 February, Thursday

    Time Temperature Precipitation Wind Pressure Humidity
    00:00 +4°C° 0 mm 4 mps 736 mmHg 77%
    01:00 +4°C° 0 mm 4 mps 736 mmHg 77%
    02:00 +4°C° 0 mm 4 mps 736 mmHg 77%
    03:00 +4°C° 0 mm 4 mps 735 mmHg 78%
    04:00 +3°C° 0 mm 5 mps 735 mmHg 79%
    05:00 +3°C° 0 mm 5 mps 735 mmHg 79%
    06:00 +3°C° 0 mm 5 mps 735 mmHg 80%
    07:00 +3°C° 0 mm 5 mps 735 mmHg 81%
    08:00 +4°C° 0 mm 6 mps 735 mmHg 82%
    09:00 +7°C° 0 mm 6 mps 736 mmHg 78%
    10:00 +8°C° 0 mm 6 mps 736 mmHg 74%
    11:00 +10°C° 0 mm 7 mps 736 mmHg 70%
    12:00 +11°C° 0 mm 7 mps 736 mmHg 67%
    13:00 +13°C° 0 mm 6 mps 736 mmHg 65%
    14:00 +14°C° 0 mm 6 mps 736 mmHg 62%
    15:00 +13°C° 0 mm 5 mps 735 mmHg 67%
    16:00 +12°C° 0 mm 5 mps 735 mmHg 71%
    17:00 +12°C° 0 mm 4 mps 735 mmHg 75%
    18:00 +11°C° 0 mm 4 mps 736 mmHg 79%
    19:00 +8°C° 0 mm 4 mps 736 mmHg 84%
    20:00 +7°C° 0 mm 5 mps 736 mmHg 88%
    21:00 +7°C° 0 mm 5 mps 736 mmHg 89%
    22:00 +7°C° 0 mm 5 mps 736 mmHg 90%
    23:00 +7°C° 0 mm 4 mps 736 mmHg 91%

    24 February, Friday

    Time Temperature Precipitation Wind Pressure Humidity
    00:00 +7°C° 0 mm 5 mps 736 mmHg 92%
    01:00 +7°C° 0 mm 5 mps 736 mmHg 92%
    02:00 +7°C° 0 mm 6 mps 736 mmHg 93%
    03:00 +7°C° 0 mm 6 mps 735 mmHg 93%
    04:00 +7°C° 0 mm 6 mps 735 mmHg 93%
    05:00 +7°C° 0 mm 6 mps 734 mmHg 93%
    06:00 +6°C° 0 mm 7 mps 734 mmHg 92%
    07:00 +6°C° 0 mm 7 mps 734 mmHg 91%
    08:00 +7°C° 0 mm 8 mps 734 mmHg 91%
    09:00 +9°C° 0 mm 8 mps 734 mmHg 84%
    10:00 +10°C° 0 mm 9 mps 734 mmHg 78%
    11:00 +11°C° 0 mm 10 mps 733 mmHg 72%
    12:00 +12°C° 0 mm 9 mps 733 mmHg 69%
    13:00 +13°C° 0 mm 9 mps 732 mmHg 66%
    14:00 +13°C° 0 mm 9 mps 732 mmHg 63%
    15:00 +13°C° 0 mm 9 mps 732 mmHg 66%
    16:00 +12°C° 0 mm 8 mps 731 mmHg 69%
    17:00 +11°C° 0 mm 8 mps 731 mmHg 71%
    18:00 +10°C° 0 mm 8 mps 731 mmHg 75%
    19:00 +9°C° 0 mm 8 mps 731 mmHg 78%
    20:00 +7°C° 0 mm 8 mps 731 mmHg 81%
    21:00 +7°C° 0 mm 8 mps 731 mmHg 81%
    22:00 +7°C° 0 mm 8 mps 731 mmHg 81%
    23:00 +8°C° 0 mm 7 mps 732 mmHg 81%
    Show more